TimeCDT,TemperatureF,Dew PointF,Humidity,Sea Level PressureIn,VisibilityMPH,Wind Direction,Wind SpeedMPH,Gust SpeedMPH,PrecipitationIn,Events,Conditions,WindDirDegrees,DateUTC
12:54 AM,66.9,53.1,61,30.06,10.0,Variable,3.5,-,N/A,,Clear,0,2013-07-27 05:54:00
1:54 AM,64.9,54.0,68,30.06,10.0,North,4.6,-,N/A,,Clear,350,2013-07-27 06:54:00
2:54 AM,64.0,53.1,67,30.06,10.0,North,4.6,-,N/A,,Clear,350,2013-07-27 07:54:00
3:54 AM,63.0,53.1,70,30.05,10.0,North,3.5,-,N/A,,Clear,360,2013-07-27 08:54:00
4:54 AM,62.1,53.1,72,30.05,10.0,North,3.5,-,N/A,,Clear,350,2013-07-27 09:54:00
5:54 AM,61.0,53.1,75,30.06,10.0,NW,3.5,-,N/A,,Clear,320,2013-07-27 10:54:00
6:54 AM,61.0,53.1,75,30.08,10.0,NNW,4.6,-,N/A,,Clear,330,2013-07-27 11:54:00
7:54 AM,63.0,54.0,72,30.09,10.0,NW,3.5,-,0.00,,Mostly Cloudy,320,2013-07-27 12:54:00
8:43 AM,64.4,53.6,68,30.11,10.0,NW,4.6,-,N/A,,Mostly Cloudy,310,2013-07-27 13:43:00
8:54 AM,66.0,54.0,65,30.10,10.0,WNW,4.6,-,N/A,,Mostly Cloudy,300,2013-07-27 13:54:00
9:54 AM,68.0,55.0,63,30.09,10.0,WNW,3.5,-,0.00,,Clear,300,2013-07-27 14:54:00
10:54 AM,73.0,52.0,48,30.08,10.0,NNW,5.8,-,N/A,,Clear,340,2013-07-27 15:54:00
11:54 AM,73.0,48.9,42,30.07,10.0,NNW,9.2,17.3,N/A,,Partly Cloudy,340,2013-07-27 16:54:00
12:54 PM,75.9,51.1,42,30.04,10.0,North,6.9,-,N/A,,Clear,10,2013-07-27 17:54:00
1:38 PM,77.0,50.0,39,30.05,10.0,NNE,9.2,-,N/A,,Partly Cloudy,30,2013-07-27 18:38:00
1:54 PM,77.0,50.0,39,30.03,10.0,NNE,10.4,16.1,N/A,,Partly Cloudy,20,2013-07-27 18:54:00
2:54 PM,78.1,51.1,39,30.01,10.0,West,8.1,-,N/A,,Partly Cloudy,280,2013-07-27 19:54:00
3:54 PM,78.1,46.9,33,30.00,10.0,West,10.4,-,N/A,,Clear,280,2013-07-27 20:54:00
4:54 PM,77.0,46.9,34,30.00,10.0,NW,10.4,-,N/A,,Clear,310,2013-07-27 21:54:00
5:54 PM,75.9,46.9,36,29.99,10.0,NW,6.9,-,N/A,,Clear,320,2013-07-27 22:54:00
6:54 PM,75.9,46.9,36,29.98,10.0,NNW,8.1,-,N/A,,Clear,340,2013-07-27 23:54:00
7:54 PM,73.9,45.0,35,29.98,10.0,North,6.9,-,N/A,,Clear,350,2013-07-28 00:54:00
8:54 PM,70.0,46.9,44,29.98,10.0,North,6.9,-,N/A,,Clear,10,2013-07-28 01:54:00
9:54 PM,69.1,48.0,47,30.01,10.0,North,5.8,-,N/A,,Clear,360,2013-07-28 02:54:00
10:54 PM,66.0,48.9,54,30.01,10.0,North,4.6,-,N/A,,Clear,350,2013-07-28 03:54:00
11:54 PM,64.9,50.0,58,30.02,10.0,NNW,3.5,-,N/A,,Clear,330,2013-07-28 04:54:00